Find Starlink 2515

NORAD ID: 48323 Int'l Des: 2021-036 Owner: SPXS Country: US Constellation: starlink operational
LEOCIRCULARSTARLINK_TYPE

リアルタイム位置

3D地球を読み込み中...

Starlink 2515について

説明を読み込み中...

次回通過

Passes for default location (London). Set your location on the main map for personalized predictions.

高度履歴

Loading altitude history...

軌道要素

1 48323U 21036AZ 26106.33336806 .00049956 00000-0 16122-2 0 9996
2 48323 53.1582 286.1369 0001193 91.0152 284.9435 15.31672734 5888
Epoch: Apr 16, 2026 • Age: 7 hours

現在のステータス

高度 488.5 km
速度 7.62 km/s
衛星直下点 -49.40°S, 147.72°E
打ち上げ日 Apr 29, 2021
運用期間 4.9 years
タイプ internet

技術仕様

分類 Payload
質量 260.00 kg
乾燥質量 248.00 kg
総質量 260.00 kg
長さ 0.20 m
直径 2.80 m
スパン 9.00 m
形状 Box + pan
製造者 SPXS
バスタイプ Starlink
フェーズステータス In Orbit
所有者/国 SPXS/US

Most Searched